K8JWL-13 Weather Reports


time (UTC)temp
C
wind
direction
speed
KPH
gust
KPH
rain 1hr
cm
rain 24hr
cm
rain mn
cm
humidity
%
barometer
mb
20260503033237 5 269 0.0 0.0 400.05 0.00 0.00 79 1018.1
20260503032737 5 269 0.0 0.0 400.05 0.00 0.00 79 1018.2
20260503032237 5 269 0.0 0.0 400.05 0.00 0.00 79 1018.2
20260503031237 5 269 0.0 0.0 400.05 0.00 0.00 78 1018.3
20260503030737 5 269 0.0 0.0 400.05 0.00 0.00 78 1018.3
20260503030237 5 269 0.0 0.0 400.05 0.00 0.00 78 1018.3
20260503025737 5 269 0.0 0.0 400.05 0.00 0.00 78 1018.4
20260503025237 5 269 0.0 0.0 400.05 0.00 0.00 78 1018.3
20260503024737 5 269 0.0 0.0 400.05 0.00 0.00 78 1018.3
20260503024237 5 269 0.0 0.0 400.05 0.00 0.00 77 1018.4
20260503023737 5 269 0.0 0.0 400.05 0.00 0.00 77 1018.4
20260503023236 5 269 0.0 0.0 400.05 0.00 0.00 76 1018.5
20260503022737 5 269 0.0 0.0 400.05 0.00 0.00 76 1018.4
20260503022236 5 269 0.0 0.0 400.05 0.00 0.00 75 1018.4
20260503021737 5 269 0.0 0.0 400.05 0.00 0.00 75 1018.5
20260503021237 5 269 0.0 0.0 400.05 0.00 0.00 74 1018.5
20260503020236 6 269 0.0 0.0 400.05 0.00 0.00 72 1018.4
20260503015737 6 269 0.0 0.0 400.05 0.00 0.00 71 1018.4
20260503015236 6 269 0.0 0.0 400.05 0.00 0.00 71 1018.3
20260503014736 6 269 0.0 0.0 400.05 0.00 0.00 71 1018.3
20260503014237 6 269 0.0 0.0 400.05 0.00 0.00 70 1018.3
20260503013736 6 269 0.0 0.0 400.05 0.00 0.00 69 1018.3
20260503012737 7 269 0.0 0.0 400.05 0.00 0.00 68 1018.1
20260503012236 7 269 0.0 0.0 400.05 0.00 0.00 66 1018.1
20260503011738 7 269 0.0 0.0 400.05 0.00 0.00 66 1018.1
20260503011237 7 269 0.0 0.0 400.05 0.00 0.00 66 1018.1
20260503010736 7 269 0.0 0.0 400.05 0.00 0.00 66 1018.1
20260503010236 7 269 0.0 0.0 400.05 0.00 0.00 66 1018.1
20260503005236 7 269 0.0 0.0 400.05 0.00 0.00 63 1018.1
20260503004736 7 269 0.0 0.0 400.05 0.00 0.00 63 1018.0
20260503004237 7 269 0.0 0.0 400.05 0.00 0.00 61 1018.0
20260503003236 8 269 0.0 0.0 400.05 0.00 0.00 60 1018.0
20260503002737 8 269 0.0 0.0 400.05 0.00 0.00 58 1017.9
20260503002236 8 269 0.0 0.0 400.05 0.00 0.00 57 1018.0
20260503001736 8 269 0.0 0.0 400.05 0.00 0.00 57 1017.9
20260503001237 8 269 1.6 0.0 400.05 0.00 0.00 57 1017.8
20260503000736 8 0 0.0 0.0 400.05 0.00 0.00 57 1017.8
20260503000236 8 314 0.0 0.0 400.05 0.00 0.00 57 1017.8
20260502235737 8 318 0.0 0.0 400.05 0.00 0.00 57 1017.9
20260502235238 8 312 0.0 0.0 400.05 0.00 0.00 57 1017.8
20260502234737 8 298 0.0 0.0 400.05 0.00 0.00 56 1017.8
20260502234237 8 305 0.0 0.0 400.05 0.00 0.00 55 1017.8
20260502233738 8 304 1.6 0.0 400.05 0.00 0.00 55 1017.7
20260502233236 8 263 3.2 0.0 400.05 0.00 0.00 55 1017.7
20260502232236 8 46 1.6 0.0 400.05 0.00 0.00 54 1017.7
20260502231237 8 338 3.2 0.0 400.05 0.00 0.00 54 1017.7
20260502230237 8 330 4.8 0.0 400.05 0.00 0.00 53 1017.8
20260502225236 8 7 6.4 0.0 400.05 0.00 0.00 54 1017.7
20260502224736 8 11 0.0 0.0 400.05 0.00 0.00 54 1017.7
20260502224237 8 319 4.8 0.0 400.05 0.00 0.00 53 1017.7
20260502223736 8 323 1.6 0.0 400.05 0.00 0.00 52 1017.7
20260502223236 8 14 4.8 0.0 400.05 0.00 0.00 52 1017.7
20260502222737 8 204 1.6 0.0 400.05 0.00 0.00 52 1017.6
20260502222239 8 339 9.7 0.0 400.05 0.00 0.00 53 1017.6
20260502221736 8 340 6.4 0.0 400.05 0.00 0.00 51 1017.6
20260502221237 8 301 4.8 0.0 400.05 0.00 0.00 50 1017.6
20260502220736 8 346 0.0 0.0 400.05 0.00 0.00 51 1017.6
20260502215736 8 349 6.4 0.0 400.05 0.00 0.00 50 1017.6
20260502215236 8 34 1.6 0.0 400.05 0.00 0.00 50 1017.6
20260502214736 8 339 6.4 0.0 400.05 0.00 0.00 50 1017.6
20260502214236 8 14 0.0 0.0 400.05 0.00 0.00 50 1017.6
20260502213736 9 359 11.3 0.0 400.05 0.00 0.00 50 1017.5
20260502213236 9 14 4.8 0.0 400.05 0.00 0.00 49 1017.5
20260502212736 9 329 8.0 0.0 400.05 0.00 0.00 48 1017.5
20260502212236 9 278 11.3 0.0 400.05 0.00 0.00 50 1017.4
20260502211736 9 17 12.9 0.0 400.05 0.00 0.00 50 1017.4
20260502211543 9 308 6.4 0.0 400.05 0.00 0.00 48 1017.4
20260502211236 9 308 6.4 0.0 400.05 0.00 0.00 48 1017.4
20260502210736 9 281 14.5 0.0 400.05 0.00 0.00 48 1017.3
20260502210236 9 332 6.4 0.0 400.05 0.00 0.00 49 1017.4
20260502205236 9 288 8.0 0.0 400.05 0.00 0.00 48 1017.3
20260502204738 9 6 6.4 0.0 400.05 0.00 0.00 46 1017.3
20260502204236 9 76 11.3 0.0 400.05 0.00 0.00 46 1017.5
20260502203736 10 343 16.1 0.0 400.05 0.00 0.00 48 1017.3
20260502203237 10 340 6.4 0.0 400.05 0.00 0.00 49 1017.4
20260502202737 10 359 4.8 0.0 400.05 0.00 0.00 47 1017.4
20260502202236 10 359 6.4 0.0 400.05 0.00 0.00 47 1017.3
20260502201736 10 6 9.7 0.0 400.05 0.00 0.00 49 1017.4
20260502201237 9 304 9.7 0.0 400.05 0.00 0.00 48 1017.4
20260502200736 9 290 6.4 0.0 400.05 0.00 0.00 49 1017.4
20260502200236 9 352 8.0 0.0 400.05 0.00 0.00 49 1017.5
20260502195236 10 285 3.2 0.0 400.05 0.00 0.00 48 1017.6
20260502194736 10 262 3.2 0.0 400.05 0.00 0.00 48 1017.6
20260502194236 9 308 8.0 0.0 400.05 0.00 0.00 49 1017.7
20260502193236 9 269 12.9 0.0 400.05 0.00 0.00 47 1017.7
20260502192736 9 319 9.7 0.0 400.05 0.00 0.00 49 1017.8
20260502192236 9 345 9.7 0.0 400.05 0.00 0.00 49 1017.8
20260502191736 10 3 9.7 0.0 400.05 0.00 0.00 48 1017.8
20260502191236 10 319 6.4 0.0 400.05 0.00 0.00 48 1017.8
20260502190737 10 3 11.3 0.0 400.05 0.00 0.00 49 1017.9
20260502190236 10 305 6.4 0.0 400.05 0.00 0.00 50 1017.8
20260502185736 10 169 3.2 0.0 400.05 0.00 0.00 47 1017.8
20260502185236 10 338 9.7 0.0 400.05 0.00 0.00 46 1017.9
20260502184910 10 319 9.7 0.0 400.05 0.00 0.00 47 1017.9
20260502184736 10 319 9.7 0.0 400.05 0.00 0.00 47 1017.9
20260502183736 10 338 8.0 0.0 400.05 0.00 0.00 50 1017.9
20260502183236 9 284 3.2 0.0 400.05 0.00 0.00 47 1017.9
20260502182736 10 1 6.4 0.0 400.05 0.00 0.00 49 1017.9
20260502181737 9 311 3.2 0.0 400.05 0.00 0.00 53 1017.9
20260502181236 9 37 11.3 0.0 400.05 0.00 0.00 50 1017.9
20260502180236 9 359 12.9 0.0 400.05 0.00 0.00 54 1018.0
20260502170236 8 288 6.4 0.0 400.05 0.00 0.00 53 1018.3
20260502163737 8 297 4.8 0.0 400.05 0.00 0.00 54 1018.3
20260502163236 8 305 9.7 0.0 400.05 0.00 0.00 56 1018.4
20260502162736 8 359 17.7 0.0 400.05 0.00 0.00 57 1018.4
20260502162238 8 145 3.2 0.0 400.05 0.00 0.00 54 1018.4
20260502161739 8 15 6.4 0.0 400.05 0.00 0.00 59 1018.5
20260502161236 8 8 9.7 0.0 400.05 0.00 0.00 59 1018.5
20260502160736 8 6 3.2 0.0 400.05 0.00 0.00 57 1018.4
20260502160236 8 329 11.3 0.0 400.05 0.00 0.00 58 1018.4
20260502152236 7 11 12.9 0.0 400.05 0.00 0.00 60 1018.4
20260502151736 7 13 14.5 0.0 400.05 0.00 0.00 60 1018.3
20260502151236 7 336 14.5 0.0 400.05 0.00 0.00 65 1018.2
20260502150736 7 60 12.9 0.0 400.05 0.00 0.00 64 1018.3
20260502150236 7 75 8.0 0.0 400.05 0.00 0.00 62 1018.3
20260502130736 4 37 8.0 0.0 400.05 0.00 0.00 78 1018.1
20260502130235 4 359 6.4 0.0 400.05 0.00 0.00 79 1018.0
20260502123737 3 308 4.8 0.0 400.05 0.00 0.00 79 1018.0
20260502123235 3 304 8.0 0.0 400.05 0.00 0.00 79 1018.0
20260502122736 3 321 9.7 0.0 400.05 0.00 0.00 80 1017.9
20260502122235 3 293 8.0 0.0 400.05 0.00 0.00 80 1017.8
20260502121736 3 295 1.6 0.0 400.05 0.00 0.00 80 1017.7
20260502121238 3 338 1.6 0.0 400.05 0.00 0.00 81 1017.7
20260502120735 2 11 4.8 0.0 400.05 0.00 0.00 81 1017.7
20260502120237 2 31 3.2 0.0 400.05 0.00 0.00 82 1017.6
20260502115736 2 343 1.6 0.0 400.05 0.00 0.00 82 1017.5
20260502115235 2 326 6.4 0.0 400.05 0.00 0.00 83 1017.5
20260502114735 2 359 1.6 0.0 400.05 0.00 0.00 84 1017.5
20260502114237 2 271 0.0 0.0 400.05 0.00 0.00 84 1017.5
20260502113236 2 307 1.6 0.0 400.05 0.00 0.00 85 1017.4
20260502112737 2 343 0.0 0.0 400.05 0.00 0.00 85 1017.4
20260502112235 1 326 1.6 0.0 400.05 0.00 0.00 86 1017.4
20260502111737 1 301 3.2 0.0 400.05 0.00 0.00 86 1017.4
20260502110735 1 281 3.2 0.0 400.05 0.00 0.00 86 1017.4
20260502110235 1 264 0.0 0.0 400.05 0.00 0.00 86 1017.4
20260502105736 1 264 0.0 0.0 400.05 0.00 0.00 86 1017.3
20260502105235 1 264 0.0 0.0 400.05 0.00 0.00 86 1017.4
20260502104735 1 264 0.0 0.0 400.05 0.00 0.00 86 1017.4
20260502104237 1 264 0.0 0.0 400.05 0.00 0.00 86 1017.3
20260502102738 2 264 0.0 0.0 400.05 0.00 0.00 85 1017.2
20260502102235 2 264 0.0 0.0 400.05 0.00 0.00 85 1017.2
20260502101238 2 240 0.0 0.0 400.05 0.00 0.00 86 1017.2
20260502100238 2 280 0.0 0.0 400.05 0.00 0.00 86 1017.3
20260502091235 2 285 0.0 0.0 400.05 0.00 0.00 87 1017.2
20260502090735 2 263 0.0 0.0 400.05 0.00 0.00 86 1017.1
20260502090235 2 263 0.0 0.0 400.05 0.00 0.00 86 1017.2
20260502071235 3 250 0.0 0.0 400.05 0.00 0.00 86 1017.0
20260502070735 3 248 0.0 0.0 400.05 0.00 0.00 86 1017.0
20260502070235 3 266 1.6 0.0 400.05 0.00 0.00 86 1017.0
20260502065235 3 183 0.0 0.0 400.05 0.00 0.00 86 1017.2
20260502064735 3 333 1.6 0.0 400.05 0.00 0.00 86 1017.2
20260502064235 3 207 0.0 0.0 400.05 0.00 0.00 87 1017.2
20260502063236 3 207 0.0 0.0 400.05 0.00 0.00 87 1017.2
20260502062735 3 207 0.0 0.0 400.05 0.00 0.00 87 1017.2
20260502061735 3 207 0.0 0.0 400.05 0.00 0.00 88 1017.2
20260502061236 3 207 0.0 0.0 400.05 0.00 0.00 88 1017.1
20260502060735 3 207 0.0 0.0 400.05 0.00 0.00 88 1017.2
20260502060235 3 207 0.0 0.0 400.05 0.00 0.00 88 1017.1
20260502055737 3 207 0.0 0.0 400.05 0.00 0.00 88 1017.2
20260502055235 3 207 0.0 0.0 400.05 0.00 0.00 88 1017.3
20260502054735 3 207 0.0 0.0 400.05 0.00 0.00 88 1017.4
20260502054235 3 207 0.0 0.0 400.05 0.00 0.00 88 1017.4
20260502053735 3 207 0.0 0.0 400.05 0.00 0.00 87 1017.5
20260502053235 3 207 0.0 0.0 400.05 0.00 0.00 87 1017.5
20260502052735 3 207 0.0 0.0 400.05 0.00 0.00 87 1017.5
20260502052235 3 207 0.0 0.0 400.05 0.00 0.00 87 1017.4
20260502051735 3 207 0.0 0.0 400.05 0.00 0.00 87 1017.4
20260502051235 3 207 0.0 0.0 400.05 0.00 0.00 87 1017.4
20260502050735 4 207 0.0 0.0 400.05 0.00 0.00 87 1017.4
20260502050235 4 207 0.0 0.0 400.05 0.00 0.00 87 1017.5
20260502045736 4 207 0.0 0.0 400.05 0.00 0.00 87 1017.6
20260502045235 4 207 0.0 0.0 400.05 0.00 0.00 87 1017.6
20260502044735 4 207 0.0 0.0 400.05 0.00 0.00 86 1017.5
20260502043735 4 207 0.0 0.0 400.05 0.00 0.00 86 1017.5
20260502042735 5 207 0.0 0.0 400.05 0.00 0.08 86 1017.5
20260502042235 5 207 0.0 0.0 400.05 0.00 0.08 86 1017.4
20260502041735 5 207 0.0 0.0 400.05 0.00 0.08 86 1017.5
20260502041235 5 207 0.0 0.0 400.05 0.00 0.08 86 1017.5
20260502040735 5 207 0.0 0.0 400.05 0.00 0.08 86 1017.5
20260502040235 5 207 0.0 0.0 400.05 0.00 0.08 86 1017.5
20260502035736 5 207 0.0 0.0 400.05 0.00 0.08 85 1017.5
20260502035235 5 207 0.0 0.0 400.05 0.00 0.08 85 1017.4
20260502034735 5 207 0.0 0.0 400.05 0.00 0.08 85 1017.4
20260502034235 5 207 0.0 0.0 400.05 0.00 0.08 85 1017.4
20260502033735 5 207 0.0 0.0 400.05 0.00 0.08 85 1017.4